Powrót do katalogu

CZ-6A DEB

AktywnySSO
NORAD 54639·DEBRIS·🇨🇳 China

Wystrzelony Nov 11, 2022 z Taiyuan Satellite Launch Center

Loading…

Następne Przeloty (najbliższe 24 godziny)

TLE

ŚwieżeSource: Space-Track

Epoka: Sep 13, 2026, 23:26 UTC

1 54639U 22151PR  26256.97652869  .00000059  00000-0  54437-4 0  9992
2 54639  98.8169 259.9371 0030130  70.7281 289.7147 14.13274873197845

Śledź CZ-6A DEB w czasie rzeczywistym z AllMySat

Download on the App Store